Weather Roundup
Issued by NWS

Home | Current Version | Previous Version | Graphics & Text | Print | Product List | Glossary Off
Versions: 1 2 3 4 5 6 7 8 9 10 11 12 13 14 15 16 17 18 19 20 21 22 23 24 25 26 27 28 29 30 31 32 33 34 35 36 37 38 39 40 41 42 43 44 45 46 47 48 49 50

000
NZUS93 KARX 202359
HRRWXR

CURRENT HOURLY OBSERVATIONS ACROSS
MUCH OF THE UPPER MISSISSIPPI VALLEY
NATIONAL WEATHER SERVICE LA CROSSE WI
600 PM CST SAT JAN 20 2018


...SOUTHEAST MINNESOTA...


CITY           SKY/WX    TMP DP  RH WIND       PRES   REMARKS
ROCHESTER      FAIR      37  32  82 N6        29.91R WCI  32
ROCHESTER/MAYO FAIR      40  32  73 CALM      29.92R
WINONA         FAIR      34  32  93 CALM      29.92S
AUSTIN         FAIR      36  30  80 CALM      29.90S
ALBERT LEA     FAIR      36  34  93 N3        29.90S
DODGE CENTER   FAIR      36  32  87 CALM      29.91R
PRESTON        FAIR      36  31  82 CALM      29.91S
OWATONNA       FAIR      36  32  87 CALM      29.91S
FARIBAULT      FAIR      34  30  86 CALM      29.92R
$$

...ELSEWHERE IN MINNESOTA...


CITY           SKY/WX    TMP DP  RH WIND       PRES   REMARKS
MINNEAPOLIS    MOCLDY    40  33  76 SW3       29.92R
INTNL FALLS    FAIR      24  20  84 CALM      29.83R
DULUTH         FAIR      36  27  69 NW7       29.85R WCI  30
RED WING       FAIR      34  27  75 CALM      29.92R
REDWOOD FALLS  CLOUDY    39  31  72 CALM      29.91R
MANKATO        FAIR      39  32  76 CALM      29.92R
WORTHINGTON    CLOUDY    38  33  82 NE6       29.91  WCI  33
FAIRMONT       CLOUDY    36  33  89 NE3       29.92R
$$

...SOUTHWEST WISCONSIN...


CITY           SKY/WX    TMP DP  RH WIND       PRES   REMARKS
LA CROSSE      FAIR      34  30  85 CALM      29.93R
PRAIRIE DU CHI FAIR      41  31  69 CALM      29.92R
BOSCOBEL       FAIR      37  30  75 CALM      29.93R
LONE ROCK      NOT AVBL
PLATTEVILLE    FAIR      40  33  78 S7        29.93R WCI  35
FORT MC COY    FAIR      32  29  89 CALM      29.93R
CAMP DOUGLAS   PTCLDY    32  28  86 CALM      29.92R
MAUSTON-NEW LI FAIR      33  30  90 CALM      29.91R
VIROQUA        FAIR      39  33  78 CALM      29.91R
WIS DELLS      FAIR      40  30  68 CALM      29.92R
$$

...ELSEWHERE IN WISCONSIN...


CITY           SKY/WX    TMP DP  RH WIND       PRES   REMARKS
MILWAUKEE      FAIR      36  30  79 CALM      29.94S
MADISON        MOCLDY    40  32  73 S3        29.95R
GREEN BAY      FAIR      37  30  75 S5        29.94R WCI  33
EAU CLAIRE     NOT AVBL
BLACK RVR FLS  FAIR      33  28  80 CALM      29.93R
MEDFORD        MOCLDY    33  29  85 S3        29.90R
WAUSAU         FAIR      37  29  72 CALM      29.90R
WIS RAPIDS     FAIR      34  28  79 CALM      29.93R
MARSHFIELD     FAIR      34  30  85 CALM      29.91R
RICE LAKE      MOCLDY    35  31  87 CALM      29.91S
$$

...NORTHEAST IOWA...


CITY           SKY/WX    TMP DP  RH WIND       PRES   REMARKS
WATERLOO       FAIR      35  30  82 E3        29.90R
DUBUQUE        FAIR      35  29  78 SE6       29.92R WCI  30
DECORAH        FAIR      45  34  65 E3        29.90R
MASON CITY     CLOUDY    36  32  85 NE9       29.90R WCI  29
CHARLES CITY   FAIR      43  36  75 E5        29.90R
OELWEIN        FAIR      39  39 100 CALM      29.91R
$$

...ELSEWHERE IN IOWA...


CITY           SKY/WX    TMP DP  RH WIND       PRES   REMARKS
DES MOINES     PTCLDY    39  34  82 CALM      29.89R
IOWA CITY      CLOUDY    40  35  83 CALM      29.95R
FORT DODGE     CLEAR     35  31  85 E5        29.89R WCI  31
MARSHALLTOWN   CLOUDY    38  32  79 SE5       29.88S WCI  34
CEDAR RAPIDS   FAIR      36  33  89 SE3       29.91S
$$

...NORTHERN ILLINOIS...


CITY           SKY/WX    TMP DP  RH WIND       PRES   REMARKS
CHICAGO-OHARE  MOCLDY    39  33  79 S5        29.96R
CHICAGO-MIDWAY MOCLDY    42  37  82 S8        29.98R
MOLINE         CLOUDY    41  36  82 S6        29.94R
ROCKFORD       FAIR      36  29  75 CALM      29.96S
PEORIA         CLOUDY    44  39  82 S8        29.98R
$$

NOTE: "FAIR" INDICATES FEW OR NO CLOUDS BELOW 12,000 FEET WITH NO
SIGNIFICANT WEATHER AND/OR OBSTRUCTIONS TO VISIBILITY. WIND
SPEEDS ARE IN MILES-PER-HOUR.




USA.gov is the U.S. government's official web portal to all federal, state and local government web resources and services.